NUSAT-17 (MARY)

Last updated on Thu Oct 12 2023 00:02:25 GMT+0000 (Coordinated Universal Time)

1 46835U 20079J 23284.29276060 .06070740 23323-5 85680-3 0 9997 2 46835 97.1075 359.8353 0009742 276.5659 83.4530 16.34866841164770
UTC large
Height (km)
Speed (km/s)
/
Latitude / Longitude
Inclination (degrees)
Orbital Period (minutes)
Azimuth
Elevation
Range (km)
Doppler Factor

Next 0 passes for location: London (51.5072 / 0.1276)

Sorry there are no passes over London.